TimeCDT,TemperatureF,Dew PointF,Humidity,Sea Level PressureIn,VisibilityMPH,Wind Direction,Wind SpeedMPH,Gust SpeedMPH,PrecipitationIn,Events,Conditions,WindDirDegrees,DateUTC
12:15 AM,62.6,57.2,82,29.94,10.0,Calm,Calm,-,N/A,,Overcast,0,2013-05-17 05:15:00
12:35 AM,62.6,57.2,82,29.93,10.0,Calm,Calm,-,N/A,,Overcast,0,2013-05-17 05:35:00
12:55 AM,62.6,57.2,82,29.93,10.0,Calm,Calm,-,N/A,,Overcast,0,2013-05-17 05:55:00
1:15 AM,62.6,59.0,88,29.93,10.0,Calm,Calm,-,N/A,,Overcast,0,2013-05-17 06:15:00
1:35 AM,64.4,59.0,83,29.92,10.0,Calm,Calm,-,N/A,,Overcast,0,2013-05-17 06:35:00
1:55 AM,64.4,59.0,83,29.92,10.0,Calm,Calm,-,N/A,,Overcast,0,2013-05-17 06:55:00
2:15 AM,66.2,59.0,78,29.91,10.0,ESE,3.5,-,N/A,,Overcast,110,2013-05-17 07:15:00
2:35 AM,66.2,59.0,78,29.91,10.0,Calm,Calm,-,N/A,,Overcast,0,2013-05-17 07:35:00
2:55 AM,64.4,60.8,88,29.91,10.0,SSE,4.6,-,N/A,,Overcast,150,2013-05-17 07:55:00
3:15 AM,66.2,59.0,78,29.91,10.0,SE,4.6,-,N/A,,Overcast,130,2013-05-17 08:15:00
3:35 AM,66.2,59.0,78,29.91,10.0,SE,6.9,-,N/A,,Overcast,130,2013-05-17 08:35:00
3:55 AM,66.2,59.0,78,29.90,10.0,ESE,8.1,-,N/A,,Overcast,120,2013-05-17 08:55:00
4:15 AM,66.2,59.0,78,29.91,10.0,SE,5.8,-,N/A,,Overcast,130,2013-05-17 09:15:00
4:35 AM,66.2,59.0,78,29.91,10.0,SE,5.8,-,N/A,,Overcast,130,2013-05-17 09:35:00
4:55 AM,64.4,59.0,83,29.91,10.0,ESE,5.8,-,N/A,,Overcast,120,2013-05-17 09:55:00
5:15 AM,64.4,60.8,88,29.91,10.0,SE,5.8,-,N/A,,Mostly Cloudy,130,2013-05-17 10:15:00
5:35 AM,64.4,60.8,88,29.92,10.0,ESE,3.5,-,N/A,,Overcast,120,2013-05-17 10:35:00
5:55 AM,64.4,60.8,88,29.92,10.0,East,5.8,-,N/A,,Overcast,100,2013-05-17 10:55:00
6:15 AM,64.4,60.8,88,29.92,10.0,ESE,8.1,-,N/A,,Mostly Cloudy,120,2013-05-17 11:15:00
6:35 AM,64.4,60.8,88,29.93,10.0,SE,5.8,-,N/A,,Scattered Clouds,130,2013-05-17 11:35:00
7:15 AM,64.4,60.8,88,29.93,10.0,ESE,6.9,-,N/A,,Mostly Cloudy,120,2013-05-17 12:15:00
7:35 AM,66.2,60.8,83,29.94,10.0,SE,6.9,-,N/A,,Overcast,130,2013-05-17 12:35:00
7:55 AM,66.2,62.6,88,29.94,10.0,ESE,5.8,-,N/A,,Overcast,120,2013-05-17 12:55:00
8:15 AM,66.2,62.6,88,29.95,10.0,ESE,4.6,-,N/A,,Overcast,120,2013-05-17 13:15:00
8:35 AM,66.2,62.6,88,29.95,10.0,ESE,3.5,-,N/A,,Overcast,120,2013-05-17 13:35:00
8:55 AM,68.0,62.6,83,29.95,10.0,SE,4.6,-,N/A,,Overcast,130,2013-05-17 13:55:00
9:15 AM,68.0,62.6,83,29.95,10.0,SE,4.6,-,N/A,,Overcast,140,2013-05-17 14:15:00
9:35 AM,68.0,62.6,83,29.95,10.0,ESE,4.6,-,N/A,,Overcast,120,2013-05-17 14:35:00
9:55 AM,68.0,62.6,83,29.95,9.0,Calm,Calm,-,N/A,,Mostly Cloudy,0,2013-05-17 14:55:00
10:15 AM,69.8,62.6,78,29.96,10.0,SSE,3.5,-,N/A,,Mostly Cloudy,150,2013-05-17 15:15:00
10:35 AM,69.8,62.6,78,29.96,10.0,ESE,3.5,-,N/A,,Overcast,120,2013-05-17 15:35:00
10:55 AM,71.6,62.6,73,29.96,10.0,SE,4.6,-,N/A,,Overcast,130,2013-05-17 15:55:00
11:15 AM,71.6,62.6,73,29.96,10.0,SE,4.6,-,N/A,,Overcast,130,2013-05-17 16:15:00
11:35 AM,71.6,62.6,73,29.96,10.0,SE,4.6,-,N/A,,Overcast,130,2013-05-17 16:35:00
11:55 AM,71.6,62.6,73,29.96,10.0,Calm,Calm,-,N/A,,Overcast,0,2013-05-17 16:55:00
12:15 PM,71.6,62.6,73,29.95,10.0,Calm,Calm,-,N/A,,Mostly Cloudy,0,2013-05-17 17:15:00
12:35 PM,71.6,64.4,78,29.95,10.0,Calm,Calm,-,N/A,,Overcast,0,2013-05-17 17:35:00
12:55 PM,71.6,64.4,78,29.95,10.0,Calm,Calm,-,N/A,,Overcast,0,2013-05-17 17:55:00
1:15 PM,73.4,64.4,73,29.94,10.0,ENE,4.6,-,N/A,,Mostly Cloudy,70,2013-05-17 18:15:00
1:35 PM,73.4,64.4,73,29.94,10.0,ESE,5.8,-,N/A,,Mostly Cloudy,110,2013-05-17 18:35:00
2:15 PM,73.4,64.4,73,29.93,10.0,SE,6.9,-,N/A,,Overcast,140,2013-05-17 19:15:00
2:35 PM,73.4,64.4,73,29.93,10.0,ESE,4.6,-,N/A,,Overcast,110,2013-05-17 19:35:00
2:55 PM,73.4,64.4,73,29.92,10.0,ESE,4.6,-,N/A,,Overcast,120,2013-05-17 19:55:00
3:15 PM,75.2,64.4,69,29.92,10.0,South,8.1,-,N/A,,Overcast,170,2013-05-17 20:15:00
3:35 PM,75.2,64.4,69,29.92,10.0,South,4.6,-,N/A,,Overcast,190,2013-05-17 20:35:00
3:55 PM,75.2,64.4,69,29.91,10.0,SSE,5.8,-,N/A,,Overcast,150,2013-05-17 20:55:00
4:15 PM,75.2,64.4,69,29.90,10.0,SE,3.5,-,N/A,,Overcast,130,2013-05-17 21:15:00
4:35 PM,75.2,64.4,69,29.91,10.0,ENE,3.5,-,N/A,,Overcast,70,2013-05-17 21:35:00
4:55 PM,75.2,64.4,69,29.90,10.0,NE,3.5,-,N/A,,Overcast,50,2013-05-17 21:55:00
5:15 PM,75.2,64.4,69,29.90,10.0,ESE,3.5,-,N/A,,Overcast,120,2013-05-17 22:15:00
5:35 PM,75.2,64.4,69,29.90,10.0,South,6.9,-,N/A,,Overcast,170,2013-05-17 22:35:00
5:55 PM,75.2,64.4,69,29.90,10.0,South,4.6,-,N/A,,Overcast,180,2013-05-17 22:55:00
6:15 PM,75.2,64.4,69,29.90,9.0,ENE,3.5,-,N/A,,Overcast,70,2013-05-17 23:15:00
6:35 PM,75.2,64.4,69,29.90,10.0,ESE,4.6,-,N/A,,Overcast,110,2013-05-17 23:35:00
6:55 PM,75.2,66.2,73,29.90,10.0,ESE,4.6,-,N/A,,Overcast,120,2013-05-17 23:55:00
7:15 PM,75.2,64.4,69,29.90,10.0,ESE,4.6,-,N/A,,Overcast,120,2013-05-18 00:15:00
7:35 PM,73.4,64.4,73,29.91,10.0,ESE,4.6,-,N/A,,Overcast,110,2013-05-18 00:35:00
7:55 PM,73.4,64.4,73,29.91,10.0,Calm,Calm,-,N/A,,Scattered Clouds,0,2013-05-18 00:55:00
8:15 PM,71.6,64.4,78,29.91,10.0,East,4.6,-,N/A,,Mostly Cloudy,100,2013-05-18 01:15:00
8:35 PM,71.6,64.4,78,29.92,10.0,East,5.8,-,N/A,,Scattered Clouds,100,2013-05-18 01:35:00
8:55 PM,71.6,64.4,78,29.92,10.0,ESE,3.5,-,N/A,,Mostly Cloudy,120,2013-05-18 01:55:00
9:15 PM,71.6,64.4,78,29.93,10.0,East,4.6,-,N/A,,Mostly Cloudy,100,2013-05-18 02:15:00
9:35 PM,69.8,64.4,83,29.94,10.0,Calm,Calm,-,N/A,,Mostly Cloudy,0,2013-05-18 02:35:00
9:55 PM,68.0,64.4,88,29.95,10.0,Calm,Calm,-,N/A,,Scattered Clouds,0,2013-05-18 02:55:00
10:15 PM,66.2,64.4,94,29.95,10.0,Calm,Calm,-,N/A,,Clear,0,2013-05-18 03:15:00
10:35 PM,66.2,64.4,94,29.95,9.0,Calm,Calm,-,N/A,,Clear,0,2013-05-18 03:35:00
10:55 PM,66.2,64.4,94,29.95,9.0,Calm,Calm,-,N/A,,Partly Cloudy,0,2013-05-18 03:55:00
11:35 PM,66.2,64.4,94,29.96,7.0,SE,3.5,-,N/A,,Mostly Cloudy,130,2013-05-18 04:35:00
11:55 PM,66.2,64.4,94,29.96,7.0,Calm,Calm,-,N/A,,Partly Cloudy,0,2013-05-18 04:55:00